Погода в Уксянском

Россия / Курганская область     55°56′48″N   63°01′33″E
темп.,
°C
ветер,
м/с
пор.,
м/с
влажн.,
%
обл.,
%
осадки,
мм/ч
давл.,
гПа
погр.,
м
9 декабря, чт
чт923:00−10ю51184100 0.0 1039247
02:00−8ю6138885 0.1 1037301
05:00−8ююз61382100 0.1 1036322
08:00−7ююз51084100 0.0 1036250
11:00−8ююз51085100 0.0 1036198
14:00−7ююз598498 0.0 1035200
17:00−8ююз51281100 0.0 1035222
20:00−8ююз6147699 0.0 1034268
10 декабря, пт
пт1023:00−8ююз61673100 0.0 1033307
02:00−7ююз71869100 0.0 1032340
05:00−7ююз81967100 0.0 1031335
08:00−8ююз81967100 0.0 1029305
11:00−7ююз71869100 0.0 1029381
14:00−6ююз61574100 0.0 1027392
17:00−6ююз51081100 0.0 1027228
20:00−6зюз3688100 0.0 1027142
11 декабря, сб
сб1123:00−8зсз359199 0.0 102875
02:00−9сз3109566 0.0 1029205
05:00−11с411915 0.0 1031262
08:00−13с49935 0.0 1033170
11:00−12с310885 0.0 1034216
14:00−10ссз38875 0.0 1034198
17:00−13сз34905 0.0 103552
20:00−12сз37895 0.0 103595
12 декабря, вс
вс1223:00−13ссз38915 0.0 1036133
02:00−13сз379219 0.0 1037106
05:00−13сз36927 0.0 103884
08:00−14зсз229355 0.0 103936
11:00−11з35865 0.0 103987
14:00−9з48835 0.0 1038146
17:00−10з410835 0.0 1038154
20:00−9з4108130 0.0 1038183
13 декабря, пн
пн1323:00−9зсз615745 0.0 1037300
02:00−9зсз615745 0.0 1037348
05:00−9зсз616745 0.0 1036351
08:00−8зсз61673100 0.0 1036362
11:00−8зсз616745 0.0 1035398
14:00−7зсз6157694 0.0 1034447
17:00−8зсз514789 0.0 1034353
20:00−10зсз411865 0.0 1034215